Dewpoint
5 5 5 2 2 0 -1 -1 -1 -3 -3 1 2 5 4 5 8 9 10 11 11 10 10 10 10 9 9 9 7 4 -0 -2 -3 -4 -7 -9 -7 -5 -4 -6 -6 -6 -6 -6
5 5 1 -1 -0 -0 -2 -1 -2 -4 -5 -0 1 1 -0 2 4 9 11 11 11 10 10 10 9 7 6 7 6 3 -0 -2 -4 -6 -8 -7 -5 -4 -6 -6 -6 -6 -6 -5
5 1 -1 -1 1 -1 -2 -1 -2 -2 -5 -3 -2 -1 -0 -1 -1 5 10 11 11 10 9 9 8 6 2 -0 -0 -1 -2 -4 -6 -7 -8 -5 -4 -6 -5 -5 -6 -6 -5 -5
-1 -1 0 0 -0 -0 -1 -3 -2 -2 -1 1 -2 4 -1 -4 -2 -3 -2 5 7 8 8 8 7 3 -4 -5 -5 -5 -6 -6 -6 -7 -5 -4 -5 -5 -5 -6 -5 -5 -5 -4
-1 0 1 0 -2 -3 -2 -2 -0 -0 1 -2 -3 1 0 -4 -3 -3 -4 -4 -3 2 4 6 1 -4 -5 -5 -6 -5 -5 -6 -6 -3 -3 -3 -4 -4 -5 -5 -4 -5 -5 -4
-1 -2 -1 -1 -2 -3 -4 -2 -2 -1 0 -0 -2 -1 0 -2 -4 -4 -5 -4 -5 -4 -4 -5 -5 -5 -5 -5 -6 -6 -5 -3 -2 -2 -2 -3 -3 -4 -5 -4 -7 -9 -7 -4
-3 -1 -1 -2 -3 -3 -2 -1 -1 2 0 1 -4 -0 -1 -3 -5 -5 -5 -4 -3 -3 -3 -3 -4 -4 -4 -4 -3 -2 -2 -2 -2 -2 -2 -2 -3 -4 -4 -8 -10 -10 -10 -8
-2 -2 -0 -2 -1 -1 0 -2 0 -0 -1 -0 -3 -0 -1 -3 -3 -4 -6 -4 -3 -3 -3 -4 -3 -2 -2 -2 -3 -4 -4 -3 -3 -3 -2 -3 -4 -6 -9 -10 -10 -10 -9 -9
1 -1 -2 -2 -2 -3 -3 -3 -3 -2 -1 -2 -2 -6 -5 -3 -2 -2 -3 -3 -3 -2 -2 -1 -1 -1 -2 -3 -4 -5 -5 -5 -5 -6 -8 -9 -10 -10 -10 -9 -8 -9 -9 -10
-5 -2 -2 -2 -2 -2 -3 -3 -4 -1 -1 1 0 -2 -1 -1 -1 -1 -2 -3 -3 -2 -2 -2 -2 -2 -3 -5 -7 -7 -8 -9 -10 -10 -10 -10 -9 -9 -9 -8 -8 -8 -8 -8
-4 -4 -3 -3 -2 -3 -2 -2 -3 -2 -1 -0 1 1 -2 -2 -1 -1 -2 -3 -3 -3 -3 -3 -3 -5 -6 -7 -9 -9 -10 -10 -10 -10 -10 -10 -10 -10 -9 -9 -9 -9 -8 -8
-5 -4 -2 -4 -3 -3 -3 -2 -6 -2 -7 -1 -1 -0 -5 -4 -2 -2 -2 -3 -3 -4 -4 -4 -6 -7 -8 -9 -9 -10 -10 -10 -10 -10 -10 -10 -10 -10 -10 -10 -10 -9 -9 -9
-3 -2 -3 -4 -5 -3 -2 -3 -3 -2 -1 -2 -4 -3 -4 -1 -1 -2 -3 -3 -4 -4 -5 -6 -7 -7 -8 -9 -10 -9 -9 -9 -10 -10 -10 -10 -10 -11 -11 -11 -10 -10 -9 -9
-2 -3 -5 -3 -7 -4 -4 -2 -3 -3 -1 -2 -2 -3 -3 -1 -1 -2 -2 -3 -4 -4 -6 -6 -7 -7 -7 -8 -9 -9 -9 -9 -10 -10 -9 -9 -10 -10 -10 -10 -10 -10 -10 -9
-3 -3 -4 -4 -4 -3 -3 -3 -3 -3 -4 -6 -7 -2 -4 -3 -1 -2 -3 -3 -3 -4 -5 -6 -6 -6 -7 -8 -9 -9 -9 -8 -8 -8 -9 -11 -11 -11 -10 -10 -10 -10 -10 -10
-3 -6 -4 -6 -5 -5 -5 -5 -2 -2 -3 -3 -3 -4 -5 -7 -3 -2 -2 -2 -3 -4 -5 -6 -5 -6 -7 -9 -9 -9 -7 -7 -9 -12 -14 -14 -14 -14 -14 -14 -14 -13 -12 -11
-3 -5 -3 -6 -4 -6 -6 -7 -4 -4 -3 -4 -3 -6 -8 -7 -3 -2 -2 -3 -3 -3 -4 -5 -5 -6 -8 -8 -8 -6 -7 -10 -12 -13 -13 -12 -13 -13 -14 -14 -14 -14 -14 -13
-3 -3 -3 -3 -6 -9 -13 -7 -7 -5 -7 -4 -5 -6 -7 -8 -7 -5 -2 -3 -3 -2 -3 -4 -5 -6 -8 -8 -7 -6 -9 -12 -13 -13 -13 -13 -14 -15 -16 -18 -19 -20 -19 -19
-3 -3 -3 -3 -4 -9 -11 -7 -8 -6 -12 -7 -5 -6 -5 -5 -5 -4 -3 -2 -2 -2 -3 -5 -6 -8 -8 -7 -5 -7 -12 -13 -13 -13 -13 -14 -16 -19 -19 -18 -17 -18 -19 -20
-2 -2 -4 -3 -3 -5 -11 -9 -7 -11 -10 -9 -7 -7 -4 -4 -3 -4 -3 -2 -2 -4 -5 -6 -7 -7 -7 -5 -5 -10 -13 -13 -13 -13 -14 -17 -19 -18 -17 -18 -23 -28 -28 -27
-0 -1 0 -0 -1 -3 -8 -7 -7 -10 -8 -8 -7 -7 -4 -4 -5 -6 -5 -5 -5 -6 -7 -7 -7 -7 -5 -5 -8 -13 -14 -14 -12 -14 -18 -19 -18 -20 -24 -27 -28 -27 -26 -25
-1 -1 0 -1 -0 -1 -7 -7 -9 -11 -7 -7 -7 -5 -4 -4 -5 -5 -6 -6 -6 -6 -7 -7 -6 -6 -6 -9 -12 -14 -13 -13 -15 -18 -18 -19 -22 -24 -26 -27 -27 -26 -24 -24
-3 -5 -2 -3 -3 -8 -7 -8 -9 -8 -8 -7 -7 -7 -6 -5 -5 -6 -6 -6 -6 -6 -7 -7 -7 -8 -10 -12 -13 -12 -14 -17 -18 -18 -20 -22 -23 -25 -25 -25 -24 -25 -24 -23
-6 -5 -4 -4 -5 -5 -6 -8 -7 -8 -8 -8 -8 -7 -5 -5 -5 -6 -6 -6 -7 -7 -7 -7 -9 -11 -12 -12 -12 -16 -17 -18 -19 -21 -22 -24 -24 -24 -24 -23 -22 -21 -22 -22
-8 -6 -5 -5 -6 -6 -7 -6 -6 -6 -6 -6 -7 -7 -7 -4 -5 -6 -7 -7 -6 -7 -7 -9 -11 -12 -12 -14 -15 -16 -19 -21 -23 -25 -25 -24 -23 -22 -22 -22 -21 -20 -21 -19
-7 -6 -6 -7 -8 -8 -9 -9 -8 -6 -6 -6 -6 -6 -6 -6 -6 -6 -6 -6 -6 -7 -9 -11 -12 -13 -12 -13 -17 -21 -24 -26 -27 -27 -26 -26 -25 -23 -22 -21 -21 -20 -19 -19
Wind_Speed
3 3 5 8 11 7 7 6 6 2 1 5 2 6 7 10 16 20 23 25 25 22 20 20 18 15 16 16 15 13 12 12 12 12 11 10 10 10 10 11 13 15 16 17
3 3 6 5 8 6 7 6 3 1 1 4 3 3 2 2 5 23 27 27 28 25 23 21 19 16 14 14 15 15 14 14 13 11 11 9 9 9 8 10 12 15 17 18
3 1 8 3 2 9 3 8 4 6 2 5 6 4 1 2 3 12 24 27 26 28 26 25 23 19 15 15 15 15 15 14 12 11 10 9 9 8 9 11 14 16 18 18
3 11 5 5 6 3 4 2 6 8 5 4 3 4 4 5 6 7 14 21 24 26 27 28 25 21 16 13 13 14 14 12 11 9 9 9 9 9 10 14 18 18 18 18
1 4 6 6 4 3 2 4 6 4 5 4 3 4 5 3 7 8 17 18 17 23 23 26 23 19 15 14 13 12 11 9 8 8 9 9 9 10 14 18 19 19 19 18
2 2 3 0 4 3 1 6 9 5 4 3 2 4 5 6 10 6 8 19 20 21 20 18 17 16 13 11 9 8 7 7 7 8 9 9 11 14 18 19 18 17 16 15
6 5 2 3 4 3 6 6 3 4 3 5 3 2 8 5 6 8 15 22 22 21 18 16 15 13 11 10 9 8 7 7 7 8 9 12 14 17 18 17 16 16 15 14
4 5 6 4 1 2 4 4 5 6 4 3 1 6 7 4 6 14 24 27 23 20 16 15 14 13 11 8 7 6 6 7 8 10 11 13 14 15 15 17 17 17 16 15
3 2 1 1 1 1 5 2 1 6 3 3 3 6 7 2 1 10 23 24 22 19 18 17 15 12 9 8 7 6 5 5 6 8 10 12 14 16 18 18 17 17 17 16
2 3 2 2 2 1 3 1 3 3 3 3 4 5 5 6 8 6 11 22 21 21 21 17 15 13 10 9 7 5 5 6 7 9 11 13 14 15 16 17 17 18 18 17
2 3 3 1 3 5 2 2 1 2 4 4 2 6 5 6 8 12 14 21 23 23 20 17 14 12 10 8 7 6 6 7 9 10 10 11 11 12 13 15 16 17 18 18
0 4 2 2 3 2 1 4 4 4 3 0 3 6 2 5 11 19 21 22 24 22 18 16 14 13 11 9 6 6 6 7 8 8 8 9 10 11 12 13 14 15 16 16
1 1 3 7 4 3 4 5 5 4 2 4 4 5 2 2 7 21 25 26 25 22 21 19 17 14 10 8 6 6 5 5 5 6 6 6 7 8 9 10 10 11 12 13
1 2 4 7 5 4 4 4 4 4 4 4 6 6 3 3 7 13 24 29 27 25 23 20 17 14 11 7 6 5 4 4 4 4 5 6 7 9 11 12 12 12 13 13
3 3 3 5 6 5 6 5 7 8 5 5 4 7 6 8 12 26 31 31 27 25 23 20 18 13 10 8 7 5 4 3 3 3 4 5 7 8 10 10 11 12 13 14
2 2 1 4 3 6 6 8 9 9 6 9 5 16 9 7 18 15 27 32 31 29 27 24 19 16 13 11 9 7 5 4 3 2 1 3 5 7 8 9 11 12 13 13
3 4 3 4 3 4 8 13 15 6 6 8 9 10 6 7 13 26 33 36 35 31 28 26 22 17 13 10 8 7 6 5 4 2 2 4 5 7 8 9 11 12 13 14
4 3 3 3 3 4 6 3 3 11 7 12 5 5 9 10 16 21 27 37 33 28 27 25 21 17 14 12 10 9 8 6 5 3 3 4 5 6 8 10 12 13 15 16
3 3 2 3 3 7 4 3 6 7 7 9 13 6 7 8 8 6 15 25 29 27 24 22 18 16 14 12 11 9 8 7 6 5 5 6 7 8 10 12 15 17 18 18
4 3 3 2 3 6 4 3 3 2 5 3 6 9 11 9 3 4 17 19 23 22 20 19 17 15 13 12 11 10 9 8 7 5 5 6 8 11 14 16 18 19 19 18
4 2 7 4 4 8 7 6 6 2 5 3 3 8 22 6 9 8 19 20 21 21 19 18 15 13 12 11 11 10 9 8 7 6 6 8 10 13 15 15 16 16 16 16
8 8 4 3 3 8 10 5 6 5 3 3 4 6 22 19 8 11 21 23 22 20 18 16 13 12 12 11 11 9 8 8 7 7 8 10 12 13 14 15 16 16 16 17
4 7 6 10 7 4 22 6 15 5 5 7 7 9 12 16 15 18 22 22 20 18 16 14 13 12 12 11 11 9 8 8 8 9 11 13 14 14 15 16 16 17 17 19
4 6 3 2 6 13 15 24 15 15 15 11 10 10 13 18 19 20 21 21 20 19 17 15 14 13 13 11 9 8 8 9 10 12 14 15 15 16 15 16 16 18 18 20
5 8 5 5 7 8 13 21 27 21 17 15 14 15 15 20 22 22 22 21 19 18 16 15 13 12 11 10 9 9 10 11 12 15 16 16 17 18 19 19 19 19 18 20
7 7 5 7 12 9 8 7 15 24 25 21 19 18 20 21 22 23 22 20 19 17 16 14 12 11 10 10 9 9 10 12 15 17 18 18 19 19 20 22 22 19 21 20
Wind_Direction
168 150 192 218 208 200 129 127 132 292 265 95 137 148 171 162 180 177 182 184 189 194 194 202 214 209 213 217 221 227 238 250 261 271 277 284 301 315 325 336 340 340 340 340
166 160 225 256 223 171 116 133 120 29 2 97 160 100 321 192 176 190 187 190 193 195 201 206 206 213 224 231 233 235 242 252 260 264 270 280 298 308 317 327 334 334 335 338
103 251 316 13 39 87 52 156 168 149 95 48 105 355 231 236 202 190 204 197 198 201 202 202 204 213 220 229 237 245 249 251 252 257 264 279 293 301 312 323 328 330 329 331
45 328 4 45 64 20 127 129 141 137 101 172 48 238 267 236 227 183 176 194 207 209 210 207 207 212 221 229 237 241 240 243 249 253 264 281 290 298 313 324 325 324 321 320
353 26 14 67 328 333 150 132 134 104 91 98 352 78 260 168 230 229 201 186 182 192 194 197 207 215 222 234 248 237 231 231 241 256 272 284 290 300 310 317 316 315 313 312
18 7 70 16 302 290 313 87 47 59 85 38 267 130 265 198 200 215 205 203 192 183 183 190 202 212 219 221 212 207 213 226 246 265 277 281 286 295 303 310 314 316 316 312
356 346 21 73 335 4 51 57 26 24 6 210 284 46 246 223 226 198 192 192 181 180 183 193 194 190 190 188 188 197 213 235 256 265 269 278 288 296 303 309 313 317 319 318
124 347 352 20 91 289 42 126 149 170 183 236 35 229 252 243 270 234 208 182 176 180 182 180 181 182 183 193 207 220 231 244 259 271 278 284 288 293 298 303 306 309 311 313
125 326 244 256 154 96 281 17 193 105 34 69 219 280 299 230 29 162 168 171 173 177 178 179 179 188 196 204 208 214 227 244 256 267 276 283 289 292 295 298 300 300 301 302
127 67 322 316 352 36 78 221 43 1 129 239 282 280 236 224 203 176 164 177 172 171 171 178 186 192 198 198 199 205 224 244 263 279 288 292 294 296 296 297 299 299 300 299
132 108 278 359 203 185 52 6 105 152 147 167 177 259 216 225 205 185 182 180 175 174 178 182 186 186 186 190 202 222 253 279 289 293 296 298 301 302 303 303 302 301 301 300
53 132 158 234 329 343 211 180 152 121 223 171 148 275 271 257 203 186 185 182 178 181 184 185 184 185 191 202 224 256 272 284 294 302 311 316 319 319 318 316 316 314 312 311
14 32 50 350 352 7 241 206 165 124 85 212 135 265 306 24 162 188 184 182 183 186 185 185 189 193 203 219 239 261 278 290 306 321 328 331 332 335 336 336 334 329 324 321
125 179 182 185 204 145 219 210 203 144 136 188 216 266 253 182 176 180 188 190 191 191 190 190 194 202 210 225 240 251 265 282 303 323 335 346 352 358 358 356 352 346 340 334
140 231 217 256 240 209 211 210 186 200 202 179 272 215 257 212 197 198 194 190 192 192 191 196 201 206 218 227 235 242 251 270 303 328 348 1 8 9 3 360 359 356 351 347
156 245 347 281 288 243 263 241 221 220 219 253 248 265 212 217 209 200 200 195 197 197 199 202 205 213 220 224 226 228 226 225 229 253 341 13 6 3 358 358 359 357 355 352
168 154 109 260 335 328 289 231 211 197 209 187 203 227 169 209 202 202 204 203 204 202 200 204 211 216 219 219 216 215 219 223 218 238 321 343 346 347 348 349 347 345 346 345
157 148 150 254 3 247 243 169 187 217 238 219 259 210 204 215 223 225 216 207 206 203 202 205 208 211 212 212 211 215 217 220 225 256 296 313 323 329 335 337 337 336 335 334
156 138 214 202 206 293 285 211 179 176 274 211 227 206 210 184 169 212 213 216 212 205 206 206 207 206 208 210 211 216 218 221 228 255 282 304 316 324 326 326 326 326 324 322
85 91 153 147 212 235 236 178 163 143 287 184 185 205 175 168 172 246 198 192 194 197 198 200 200 206 210 210 213 216 219 224 234 262 284 301 311 319 322 324 324 324 323 323
151 197 209 203 242 285 248 164 145 145 247 195 220 210 182 190 207 227 188 185 191 193 193 196 202 208 210 213 216 218 222 232 248 268 288 304 310 312 314 319 324 325 324 323
166 158 193 154 193 268 162 114 177 210 172 212 205 195 196 208 207 190 183 182 185 188 192 198 206 208 211 213 215 219 231 244 258 275 289 298 306 312 316 317 320 321 320 320
206 189 179 186 210 242 190 211 211 216 224 213 219 219 212 208 187 181 183 188 192 197 200 205 209 209 212 215 219 227 239 251 266 282 294 301 305 309 312 314 314 316 315 317
254 182 213 145 232 235 239 227 243 234 235 235 230 232 222 212 198 193 191 191 196 199 202 202 203 207 212 217 226 239 251 267 283 291 293 298 303 305 308 309 312 312 312 312
198 148 199 257 282 272 264 244 243 237 233 239 236 232 232 215 208 207 203 202 203 203 200 200 203 206 211 219 232 249 267 279 286 290 298 305 307 307 306 305 308 308 307 309
196 188 190 245 228 228 238 269 249 239 241 241 242 229 221 221 220 214 211 209 205 203 201 202 204 207 215 227 243 266 283 288 290 292 298 302 302 302 302 302 300 296 300 299
Height
1511 1512 1514 1511 1510 1506 1507 1513 1517 1515 1512 1515 1518 1522 1521 1522 1524 1527 1530 1532 1535 1537 1540 1542 1544 1546 1547 1549 1550 1551 1552 1552 1553 1553 1553 1552 1552 1551 1549 1548 1547 1545 1543 1540
1512 1513 1508 1505 1505 1501 1503 1513 1517 1516 1513 1515 1522 1523 1522 1522 1523 1524 1527 1530 1532 1536 1537 1539 1541 1543 1545 1547 1548 1548 1549 1549 1550 1550 1550 1550 1549 1549 1548 1547 1546 1544 1541 1538
1509 1507 1500 1500 1503 1499 1508 1513 1518 1518 1515 1519 1522 1530 1525 1522 1522 1523 1526 1528 1531 1532 1533 1536 1539 1542 1543 1544 1545 1546 1547 1547 1547 1547 1547 1547 1547 1546 1546 1545 1544 1541 1539 1536
1510 1505 1501 1501 1507 1510 1509 1508 1510 1516 1527 1543 1524 1550 1530 1525 1523 1523 1523 1525 1527 1529 1531 1534 1537 1539 1541 1542 1543 1543 1544 1545 1545 1545 1545 1545 1545 1545 1544 1542 1541 1539 1537 1534
1516 1515 1512 1514 1514 1512 1509 1508 1512 1519 1538 1533 1531 1549 1528 1525 1525 1521 1520 1522 1523 1526 1528 1532 1535 1537 1539 1539 1540 1540 1542 1542 1543 1543 1543 1543 1543 1542 1541 1540 1538 1536 1533 1531
1515 1513 1516 1515 1514 1511 1508 1511 1520 1531 1544 1559 1538 1547 1534 1525 1514 1515 1516 1518 1521 1524 1527 1530 1532 1534 1536 1536 1537 1538 1540 1541 1541 1541 1541 1540 1540 1539 1537 1536 1534 1532 1529 1528
1520 1518 1517 1517 1514 1509 1512 1520 1567 1559 1569 1556 1566 1555 1521 1509 1507 1506 1509 1514 1518 1522 1525 1527 1529 1531 1533 1535 1536 1537 1538 1538 1538 1538 1538 1537 1536 1535 1533 1532 1530 1528 1526 1525
1535 1539 1519 1521 1522 1521 1519 1524 1546 1553 1568 1552 1546 1540 1517 1504 1503 1503 1506 1511 1516 1520 1523 1526 1528 1530 1532 1533 1534 1535 1536 1536 1536 1536 1535 1534 1533 1532 1530 1528 1527 1525 1523 1521
1530 1523 1522 1521 1520 1522 1521 1533 1525 1541 1556 1558 1549 1523 1505 1503 1503 1502 1505 1511 1514 1518 1521 1524 1527 1529 1531 1532 1533 1533 1534 1534 1534 1533 1532 1531 1530 1528 1527 1525 1523 1521 1519 1517
1518 1530 1523 1520 1519 1520 1519 1524 1535 1546 1545 1540 1542 1526 1519 1508 1505 1504 1506 1509 1513 1517 1520 1523 1525 1528 1529 1531 1531 1532 1532 1532 1531 1531 1529 1528 1526 1524 1523 1521 1519 1517 1516 1514
1515 1524 1528 1522 1521 1523 1526 1530 1527 1534 1534 1544 1547 1526 1503 1503 1500 1501 1504 1508 1512 1516 1519 1522 1524 1527 1528 1529 1530 1530 1530 1530 1529 1528 1526 1525 1523 1521 1519 1517 1515 1513 1511 1509
1515 1525 1538 1521 1520 1519 1518 1520 1525 1544 1522 1553 1551 1525 1496 1495 1496 1499 1503 1507 1512 1515 1518 1521 1523 1525 1526 1527 1528 1528 1528 1527 1527 1525 1524 1522 1520 1518 1516 1514 1512 1510 1508 1506
1516 1521 1545 1529 1524 1521 1522 1518 1517 1526 1534 1530 1547 1524 1494 1494 1494 1497 1501 1505 1509 1512 1514 1517 1520 1522 1524 1525 1525 1525 1525 1525 1524 1522 1521 1519 1517 1515 1513 1511 1508 1506 1504 1503
1515 1519 1519 1531 1514 1516 1517 1514 1515 1519 1538 1525 1532 1508 1494 1495 1496 1497 1499 1502 1505 1508 1511 1514 1516 1518 1520 1522 1522 1522 1522 1521 1520 1519 1518 1517 1516 1514 1512 1510 1507 1506 1503 1500
1514 1519 1515 1513 1511 1509 1506 1506 1512 1518 1510 1511 1501 1506 1492 1491 1490 1488 1490 1497 1502 1505 1509 1511 1513 1516 1517 1518 1519 1519 1519 1519 1518 1517 1516 1515 1514 1512 1512 1509 1506 1504 1502 1500
1513 1515 1512 1513 1508 1510 1507 1505 1504 1506 1504 1504 1501 1493 1484 1483 1486 1490 1491 1494 1496 1499 1503 1506 1509 1511 1512 1514 1515 1515 1515 1514 1514 1514 1513 1513 1512 1510 1509 1507 1505 1503 1501 1499
1516 1517 1521 1516 1509 1509 1509 1491 1491 1492 1489 1486 1495 1474 1476 1479 1479 1478 1482 1486 1488 1493 1498 1501 1505 1508 1510 1511 1512 1512 1513 1512 1512 1512 1512 1511 1511 1509 1507 1505 1503 1501 1499 1496
1514 1516 1520 1518 1513 1509 1480 1479 1480 1483 1478 1479 1474 1472 1471 1471 1473 1475 1477 1480 1485 1490 1493 1498 1501 1504 1506 1507 1508 1509 1509 1510 1510 1510 1510 1509 1508 1506 1505 1503 1501 1499 1496 1494
1509 1514 1516 1514 1520 1496 1470 1479 1480 1480 1470 1466 1469 1471 1471 1472 1473 1473 1475 1478 1483 1487 1491 1495 1498 1500 1502 1503 1504 1506 1507 1507 1508 1508 1508 1507 1506 1504 1502 1500 1498 1495 1493 1490
1510 1511 1515 1522 1514 1499 1472 1472 1474 1475 1478 1463 1464 1466 1469 1473 1479 1474 1473 1477 1482 1487 1490 1493 1496 1497 1499 1501 1502 1503 1504 1505 1505 1505 1505 1504 1502 1501 1499 1497 1494 1491 1489 1487
1513 1515 1512 1515 1513 1495 1472 1471 1473 1479 1473 1463 1462 1463 1466 1469 1469 1470 1472 1476 1481 1484 1488 1490 1492 1494 1496 1498 1499 1500 1501 1502 1502 1502 1501 1501 1499 1498 1496 1493 1490 1488 1486 1484
1495 1506 1511 1512 1511 1501 1467 1473 1475 1464 1461 1462 1462 1463 1464 1466 1467 1468 1471 1475 1479 1482 1484 1487 1489 1491 1493 1495 1496 1497 1498 1499 1499 1499 1498 1497 1496 1494 1492 1489 1487 1484 1482 1479
1481 1474 1483 1484 1477 1462 1461 1459 1459 1460 1460 1460 1461 1461 1462 1464 1466 1467 1469 1472 1474 1478 1482 1484 1486 1488 1490 1492 1493 1494 1494 1495 1495 1495 1494 1493 1491 1489 1488 1486 1484 1481 1478 1475
1470 1468 1470 1470 1456 1457 1458 1458 1458 1457 1457 1458 1459 1460 1461 1461 1462 1465 1466 1469 1472 1474 1476 1479 1482 1485 1487 1489 1490 1491 1491 1491 1491 1491 1490 1488 1487 1486 1484 1482 1479 1477 1475 1472
1464 1464 1464 1463 1456 1454 1453 1453 1453 1454 1455 1455 1455 1456 1458 1460 1460 1462 1465 1467 1469 1472 1474 1476 1479 1481 1484 1486 1487 1487 1486 1487 1486 1485 1484 1483 1482 1481 1479 1477 1475 1472 1471 1468
1458 1458 1458 1450 1448 1447 1446 1446 1448 1449 1449 1450 1452 1453 1455 1457 1458 1460 1462 1465 1467 1469 1472 1474 1477 1479 1481 1482 1483 1483 1483 1482 1481 1480 1479 1478 1476 1475 1473 1471 1469 1469 1465 1464